Regional Weather Roundup
Issued by NWS Upton, NY

Current Version | Previous Version | Graphics & Text | Print | Product List | Glossary Off
Versions: 1 2 3 4 5 6 7 8 9 10 11 12 13 14 15 16 17 18 19 20 21 22 23 24 25 26 27 28 29 30 31 32 33 34 35 36 37 38 39 40 41 42 43 44 45 46 47 48 49 50

000
ASUS41 KOKX 221909
RWROKX

REGIONAL WEATHER ROUNDUP
NATIONAL WEATHER SERVICE NEW YORK NY
300 PM EDT THU JUN 22 2017

NOTE: "FAIR" INDICATES FEW OR NO CLOUDS BELOW 12,000 FEET WITH NO
SIGNIFICANT WEATHER AND/OR OBSTRUCTIONS TO VISIBILITY.

NYZ071-072-176-178-NJZ106-104-222000-
NEW YORK CITY METRO AREA

CITY           SKY/WX    TMP DP  RH WIND       PRES   REMARKS
Central Park   SUNNY     81  59  47 VRB6      29.98F
Bronx Bot Gard   N/A     81  57  44 S9        29.97F
LaGuardia APRT MOSUNNY   81  57  43 S12       29.95F
Kennedy INTL   MOSUNNY   78  58  49 S13       29.97F
Breezy Point     N/A     72 N/A N/A SE8         N/A
Newark/Liberty PTSUNNY   81  59  47 SE9       29.94F
Teterboro      SUNNY     83  58  42 S13       29.93F
$$

NYZ177-179-078>081-222000-
LONG ISLAND NEW YORK

CITY           SKY/WX    TMP DP  RH WIND       PRES   REMARKS
Jones Beach      N/A     73 N/A N/A S9G15       N/A
Matinecock PT  NOT AVBL
Farmingdale    NOT AVBL
MacArthur/ISP  MOSUNNY   77  55  46 S13       29.97F
Shirley        MOSUNNY   76  58  53 SW12      29.98F
Mt Sinai Harb    N/A     81 N/A N/A S10         N/A
Westhampton    MOSUNNY   77  56  48 S9        29.99F
East Hampton   FAIR      74  58  56 SW13      29.97S
Montauk          N/A     77  58  51 SW6       29.98S
$$

NYZ052-065-067-222000-
HUDSON VALLEY

CITY           SKY/WX    TMP DP  RH WIND       PRES   REMARKS
White Plains   NOT AVBL
Larchmont Harb   N/A     75 N/A N/A S16         N/A
Croton O-T Hud   N/A     82 N/A N/A S3G10       N/A
Newburgh       MOSUNNY   81  63  54 W14       29.96F
Montgomery     MOSUNNY   81  60  48 SW9       29.94F
Poughkeepsie   MOSUNNY   81  58  45 SW12      29.92F
Albany         PTSUNNY   79  55  43 S6        29.93F
$$

NJZ001-105-106-008-010-013-015-019>022-104-222000-
NEW JERSEY

CITY           SKY/WX    TMP DP  RH WIND       PRES   REMARKS
Newark/Liberty PTSUNNY   81  59  47 SE9       29.94F
Teterboro      SUNNY     83  58  42 S13       29.93F
Caldwell       MOSUNNY   86  60  41 W8G16     29.96F
Somerville     MOSUNNY   84  64  50 VRB5      29.94F
Linden         FAIR      83  58  42 SE9       29.95F
Perth Amboy      N/A     77 N/A N/A E14         N/A
Sussex         MOSUNNY   83  62  49 VRB6G17   29.95F
Andover          N/A     82  61  48 SW14G20   29.97F
Trenton        MOSUNNY   87  64  46 SW12      29.95F
Millville      CLOUDY    84  67  56 VRB6      29.97F
Atlantic City  SUNNY     82  63  51 S14       29.98F
Wrightstown    MOSUNNY   86  66  50 S7        29.92F
Toms River     MOSUNNY   86  64  47 S12       29.96F
Belmar         SUNNY     82  61  48 SE10      29.98F
$$

PAZ047>061-062-071-222000-
EASTERN PENNSYLVANIA

CITY           SKY/WX    TMP DP  RH WIND       PRES   REMARKS
Philadelphia   PTSUNNY   88  64  44 SW14      29.96F
Allentown      SUNNY     87  64  46 W10       29.96F
Scranton       MOSUNNY   84  61  45 W16G22    29.97S
$$

CTZ002-004>006-009-010-012-RIZ004-006-007-MAZ004-011-015-222000-
SOUTHERN NEW ENGLAND
 IN CT

CITY           SKY/WX    TMP DP  RH WIND       PRES   REMARKS
Bradley INTL   PTSUNNY   83  52  34 W9        29.93F
Hartford       SUNNY     83  52  34 SW7       29.92F
Danbury        MOSUNNY   82  59  45 W12       29.97F
Wtrbury/Oxford NOT AVBL
Bridgeport     MOSUNNY   83  60  45 S16       29.94F
Meriden        SUNNY     82  55  39 VRB5      29.93F
New Haven      MOSUNNY   79  57  47 SW12      29.94F
Chester        FAIR      79  57  47 S10G20    29.95F
Groton         SUNNY     77  57  50 SW14      29.94F
Wilimantic     SUNNY     84  51  31 NW9       29.93F

 IN RI

CITY           SKY/WX    TMP DP  RH WIND       PRES   REMARKS
Providence     MOSUNNY   82  51  34 VRB6      29.91F
Block Island   SUNNY     74  58  57 SW15      29.96F
Westerly       SUNNY     80  55  42 SW12G21   29.95F
 IN MA

CITY           SKY/WX    TMP DP  RH WIND       PRES   REMARKS
Boston         PTSUNNY   82  52  35 VRB6      29.89F
Worcester      SUNNY     77  48  35 W9        29.94F
Westfield      SUNNY     82  48  30 NW8       29.92F
Provincetown   CLOUDY    77  56  48 S9        29.92F
Nantucket      MOSUNNY   70  56  61 SW10      29.96F
$$

ANZ330-335-338-340-345-350-353-355-222000-
COASTAL MARINE OBSERVATIONS


STATION/POSITION TIME  SKY/WX   TEMP    WIND        PRES    VSBY  WAVE
                                AIR SEA DIR/SP/G                  HT/PER
                 (UTC)          (F)     (DEG/KT/KT) (MB)    (MI)  (FT/S)
NY HARB ENTRANCE 1750            70 69  170/  6/  6 1015.6          2/ 6
20 S FIRE ISLAND 1850            70 69  190/ 10/ 10 1014.9          2/ 6
GREAT SOUTH BAY  1815            71 76  220/ 10/ 12   N/A
23 SSW MONTAUK P 1850            68 66              1015.7          3/ 6
15 E BARNEGAT LI 1830               70                N/A           2/ 5
HUDSON CANYON    1850            70 71  200/  6/  6 1015.5          2/ 5
KINGS POINT      1824            75 67  220/ 11/ 13 1014.6
EXECUTION ROCKS  1845            75     180/ 10/ 12   N/A
CENTRAL LI SOUND 1830            73     200/  8/  8   N/A           0
EASTERN LI SOUND NOT AVBL
ROBBINS REEF     1830                   170/ 16/ 17 1015.3
$$


>>>>>>>>>>>>>>>>>>>>>>>>>>>> KEY <<<<<<<<<<<<<<<<<<<<<<<<<<<
>                                                          <
>     SKY/WX - Sky Condition/Present Weather               <
>     TMP    - Temperature in Fahrenheit                   <
>     DP     - Dew Point in Fahrenheit                     <
>     RH     - Relative Humidity in Percent                <
>     WIND   - Direction (from) and Speed in MPH           <
>     PRES   - Mean Sea Level Pressure (inches of Hg)      <
>     WCI    - Wind Chill Index                            <
>     VSB    - VISIBILITY IN MILES                         <
>     HX     - HEAT INDEX                                  <
>     TC     - TEMPERATURE IN CELSIUS                      <
>     VRB    - VARIABLE WIND DIRECTION                     <
>                                                          <
>>>>>>>>>>>>>>>>>>>>>>>>>>>> KEY <<<<<<<<<<<<<<<<<<<<<<<<<<<



USA.gov is the U.S. government's official web portal to all federal, state and local government web resources and services.